www.pogodaiklimat.ru

Погода и климат >> Архив погоды >> Мексика >> Nueva Casas Grandes


ПОГОДА в Nueva Casas Grandes

  • Прогноз погоды в Nueva Casas Grandes
  • Монитор погоды в Nueva Casas Grandes
  • Климат города

АРХИВ ПОГОДЫ в Nueva Casas Grandes

Время (UTC), дата Ветер
(напр.,м/с)
 
Видим.   Явления Облачность Т
(С)
Тd
(С)
f
(%)
Тe
(С)
Тes
(С)
Комфортность P
(гПа)
Po
(гПа)
Тmin
(С)
Tmax
(С)
R
(мм)
R24
(мм)
S
(см)
09 14.04 З 1 2000 м ясно +7.2 -11.5 25 +7 +7 1008.0 849.3
12 14.04 штиль 0 2000 м ясно +0.6 -8.3 51 0 0 1012.5 850.5 +0.6 +23.2
15 14.04 штиль 0 20 км ясно +8.6 -7.8 30 +9 +16 1015.9 851.8
18 14.04 В 2 20 км ясно +15.0 -7.0 21 +15 +33 опасность
простуды
1015.6 851.9 -1.0 +16.0
21 14.04 штиль 0 20 км ясно +19.6 -4.9 19 +19 +41 опасность
простуды
1012.1 850.3
00 15.04 штиль 0 20 км ясно +20.6 -6.6 15 +20 +24 1006.1 847.6 -1.0 +21.2
12 15.04 ЮВ 1 20 км ясно +2.2 -8.0 47 +1 +1 1012.5 850.8 +1.1 +21.2
15 15.04 ЮВ 1 20 км ясно +10.0 -8.4 26 +10 +16 1015.2 851.5
18 15.04 В 3 20 км ясно +22.4 -2.5 19 +21 +36 комфорт 1012.4 850.3 +1.1 +22.8
21 15.04 В 3 20 км ясно +28.2 -0.5 15 +26 +39 жарко 1005.9 847.5
00 16.04 штиль 0 20 км ясно +28.8 +0.2 16 +26 +30 жарко 999.6 845.3 +1.1 +29.5
03 16.04 штиль 0 6000 м ясно +16.6 -0.4 31 +17 +17 999.1 846.6
09 16.04 штиль 0 2000 м ясно +7.6 -4.5 42 +7 +7 1005.2 848.7
12 16.04 штиль 0 2000 м ясно +5.8 -5.3 45 +6 +6 1008.7 848.8 +5.4 +29.5
15 16.04 штиль 0 20 км 8/0 1500 м
[Ac trans Ci sp]
+13.8 +0.3 40 +14 +19 1011.4 849.6
18 16.04 ЮЗ 1 20 км 6/0
[Ci sp]
+27.5 +3.4 21 +26 +45 жарко 1008.0 848.4 +5.1 +28.0
21 16.04 ЮЗ 6 20 км 8/0
[Cs]
+29.2 +0.3 15 +27 +32 жарко 1002.5 846.4
00 17.04 ЮЗ 5 20 км 9/0 2000 м
[Ac lent Cs]
+26.6 -1.2 16 +24 +25 комфорт 998.7 845.8 +5.1 +31.4
03 17.04 ЮЗ 1 6000 м 9/0
[As trans]
+22.0 +0.1 23 +21 +21 комфорт 998.3 847.0
06 17.04 штиль 0 6000 м 10/0
[As trans]
+18.0 +0.8 31 +18 +18 1000.5 848.3 +5.1 +31.4
09 17.04 З 3 2000 м 8/0 1500 м
[Ac trans]
+16.8 -1.2 29 +17 +17 1000.5 846.7
12 17.04 ЮЗ 1 2000 м 6/0 1500 м
[Ac trans]
+14.5 -1.8 32 +15 +15 1001.4 846.1 +13.0 +31.4
15 17.04 ЮЗ 1 20 км 5/0 1500 м
[Ac und Ci sp]
+18.2 -2.6 24 +19 +24 1003.7 847.3
18 17.04 ЮЗ 6 20 км 4/0 1500 м
[Ac trans Ci fib]
+24.6 -5.2 13 +22 +28 комфорт 1003.2 847.2 +12.9 +25.6
21 17.04 ЮЗ 5 20 км 1/0 2000 м
[Ac lent]
+29.0 -3.1 12 +26 +34 жарко 999.1 845.2
00 18.04 ЮЗ 3 20 км 1/0 2000 м
[Ac lent]
+27.6 -1.0 15 +25 +27 комфорт 996.1 844.0 +12.9 +30.0
03 18.04 ЮЗ 1 6000 м ясно +20.4 -0.3 25 +22 +22 комфорт 997.1 845.5
06 18.04 штиль 0 6000 м ясно +13.4 +0.8 42 +13 +13 999.8 846.9 +10.0 +30.0
09 18.04 штиль 0 2000 м ясно +8.0 -1.0 53 +8 +8 1003.0 847.4
12 18.04 штиль 0 2000 м ясно +4.7 -2.3 60 +4 +4 1007.0 848.0 +4.5 +30.0
15 18.04 штиль 0 20 км 9/0 1500 м
[Ac trans Ci]
+14.2 -0.8 36 +14 +19 1010.9 849.6
18 18.04 В 3 20 км 6/0 1500 м
[Ac trans Ci]
+25.0 +0.1 19 +23 +36 комфорт 1009.4 849.4 +4.0 +25.8
21 18.04 В 2 20 км 1/0 2000 м
[Ac trans]
+28.2 +1.5 18 +26 +42 жарко 1004.7 847.6
00 19.04 В 1 20 км 5/0 2000 м
[Ac trans Ci sp]
+28.8 +0.8 16 +26 +29 жарко 999.1 845.7 +4.0 +30.0
03 19.04 штиль 0 6000 м 9/0
[Cs]
+19.0 +2.4 33 +19 +19 998.1 846.3
06 19.04 штиль 0 6000 м ясно +15.0 +2.6 43 +15 +15 1000.2 847.3 +4.0 +30.0
09 19.04 штиль 0 2000 м ясно +12.6 +1.7 47 +12 +12 1001.8 847.0
12 19.04 штиль 0 2000 м ясно +7.2 -1.5 54 +7 +7 1005.3 847.5 +7.1 +30.0
15 19.04 штиль 0 20 км ясно +15.0 +1.0 39 +15 +22 1007.6 848.1
18 19.04 В 1 20 км ясно +29.0 +3.1 19 +27 +49 жарко 1004.1 846.5 +5.8 +29.5
21 19.04 штиль 0 20 км 8/0 2000 м
[Ac lent Ci sp]
+31.6 +3.4 17 +29 +41 жарко 998.4 843.8
00 20.04 ЮЗ 5 20 км 8/0 2000 м
[Ac lent Ci sp]
+30.6 +4.4 19 +29 +29 жарко 993.9 842.5 +5.8 +32.6
12 20.04 Ю 3 2000 м ясно +18.4 -2.4 24 +19 +19 996.8 842.0 +10.5 +32.6
15 20.04 Ю 3 20 км ясно +21.5 -3.9 18 +21 +25 комфорт 998.9 842.6
18 20.04 ЮЗ 8 20 км пыльный позёмок ясно +26.4 +11.2 39 +28 +31 жарко 998.6 843.4 +10.6 +26.6
21 20.04 ЮЗ 9 20 км пыльный позёмок {метель} 1/0
[Ci sp]
+26.2 -4.3 13 +24 +25 комфорт 995.5 842.3
00 21.04 ЮЗ 6 20 км ясно +25.8 -2.1 16 +24 +25 комфорт 993.1 841.7 +10.5 +28.8
03 21.04 З 2 6000 м ясно +20.0 +19 +19 995.8 844.2

 

Местоположение метеостанции Nueva Casas Grandes (Мексика): широта 30.37 долгота -107.90 высота над уровнем моря 1487 м.

В архиве по умолчанию представлена погода в Nueva Casas Grandes за последнюю неделю. Архивные данные за месяц целиком и за предыдущие месяцы, начиная с января 2011 года, Вы можете получить, выбрав интересующий диапазон дат из раскрывающегося списка и нажав кнопку "Ввод!".


*Определитесь, кто Вы:
робот инопланетянин человек

Внимание! Время в таблицах - всемирное. Для получения местного времени необходимо прибавить поправку, которая в Nueva Casas Grandes равна -7 ч.

Смотрите также архив погоды в соседних городах и на ближайших метеорологических станциях:

Погода в Temosachic (Мексика) (158 км)
Погода в Pilares de Nacoz (Мексика) (171 км)
Погода в Chihuahua (Мексика) (256 км)
Погода в Chihuahua University (Мексика) (267 км)
Погода в Hermosillo la Magna (Мексика) (328 км)
Погода в Hermosillo (Мексика) (336 км)
Погода в Altar Son (Мексика) (379 км)
Погода в Ciudad Obregon (Мексика) (381 км)
Погода в Empalme (Мексика) (383 км)
Погода в Guaymas (Мексика) (398 км)

Пояснения к столбцам:

Ветер - указаны скорость ветра в м/с - средняя за 10 мин, порывы в срок и между сроками (в фигурных скобках) и направление, откуда дует ветер: С - северный, СВ - северо-восточный, В - восточный, ЮВ - юго-восточный, Ю - южный, ЮЗ - юго-западный, З - западный, СЗ - северо-западный.
Видимость - горизонтальная дальность видимости в метрах или километрах. При видимости от 1 до 10 км при отсутствии осадков обычно наблюдается дымка, при ухудшении видимости до 1 км и менее - туман. В сухую погоду видимость может ухудшаться дымом, пылью или мглою.
Явления - указаны атмосферные явления, наблюдавшиеся в срок или в последний час перед сроком; фигурными скобками обозначены явления, наблюдавшиеся между сроками (за 1-3 часа до срока); квадратными скобками обозначены град или гололедные отложения с указанием их диаметра в мм.
Облачность - указаны через наклонную черту общая и нижняя облачность в баллах и высота нижней границы облаков в метрах; квадратными скобками обозначены формы облаков: Ci - перистые, Cs - перисто-слоистые, Cc - перисто-кучевые, Ac - высококучевые, As - высокослоистые, Sc - слоисто-кучевые, Ns - слоисто-дождевые, Cu - кучевые, Cb - кучево-дождевые. Подробнее классификацию облаков см. в Атласе облаков (PDF).
T - Температура воздуха - температура, измеренная на высоте 2 м над землей.
Td - Температура точки росы - температура, при понижении до которой содержащийся в воздухе водяной пар достигнет насыщения.
f - Относительная влажность воздуха - влажноcть воздуха, измеренная на высоте 2 м над землей.
Te - Эффективная температура - температура, которую ощущает одетый по сезону человек в тени. Характеристика душности погоды. При расчете учитывается влияние влажности воздуха и скорости ветра на теплоощущения человека.
Tes - Эффективная температура на солнце - температура, которую ощущает человек, с поправкой на солнечный нагрев. Характеристика знойности погоды. Зависит от высоты солнца над горизонтом, облачности и скорости ветра. Ночью, в пасмурную погоду, а также при ветре 12 м/с и более поправка равна нулю.
P - Атмосферное давление - приведенное к уровню моря атмосферное давление.
Po - Атмосферное давление - измеренное на уровне метеостанции атмосферное давление.
Tmin - Минимальная температура - минимум температуры воздуха на высоте 2 м над землей.
Tmax - Максимальная температура - максимум температуры воздуха на высоте 2 м над землей.
R - Количество осадков - Количество выпавших осадков за период времени, мм. При наведении курсора мыши на число - период времени, за который выпало указанное количество осадков.
R24 - Количество осадков - Количество выпавших осадков за 24 часа, мм.
S - Снежный покров - Высота снежного покрова, см. При наведении курсора мыши на число - состояние снежного покрова и степень покрытия местности в баллах.